Temp
13 12 13 13 13 13 14 14 15 16 17 18 18 19 20 20 21 21 22 23 23 24 24 24 25 26 26 25 26 26 22 24 27 26 26 26 27 28 27 25 23 23 22 23 25
12 13 13 13 13 14 14 15 16 17 18 19 19 20 20 20 21 21 22 23 23 24 24 24 25 26 23 26 25 23 21 26 27 26 25 26 26 26 26 24 22 21 23 24 24
13 13 14 14 14 15 15 16 17 18 19 19 20 20 20 20 20 22 23 23 24 23 24 24 26 26 26 27 26 26 24 27 26 27 27 26 25 26 23 23 22 21 21 22 23
14 14 15 15 16 16 17 17 18 19 19 20 20 20 20 20 23 23 23 23 24 24 24 25 25 25 26 25 26 26 27 27 27 27 27 26 25 25 24 24 22 21 21 22 21
14 15 15 16 16 17 18 18 19 19 20 20 20 20 21 20 22 23 23 23 24 24 24 25 25 25 25 25 27 26 26 27 25 26 26 26 25 24 23 22 21 21 21 20 20
15 15 16 16 17 17 18 19 19 20 20 20 20 20 20 21 24 23 23 23 24 24 25 26 25 25 26 27 25 26 25 25 25 25 25 26 25 24 22 20 21 21 20 19 19
16 16 16 17 18 18 19 19 19 20 21 21 20 20 20 21 24 24 24 24 24 24 23 26 25 25 26 27 27 27 25 25 24 24 25 25 24 22 22 20 19 19 18 18 19
16 16 17 17 17 18 19 19 20 21 21 21 21 20 19 24 24 24 24 24 24 24 24 25 25 24 25 26 27 26 24 22 23 23 24 23 20 22 20 20 18 18 16 17 18
17 17 17 17 18 18 19 20 20 21 21 21 21 20 20 24 23 24 24 24 25 25 25 25 25 24 25 22 22 23 21 22 24 23 24 22 21 23 20 21 19 17 17 18 17
18 18 18 18 18 19 20 20 21 21 21 21 20 20 22 23 24 24 24 24 24 24 24 24 22 21 20 19 19 21 22 24 23 23 22 21 21 22 19 20 19 18 18 18 18
17 18 18 19 19 19 20 21 19 18 19 19 22 21 24 24 24 24 24 24 24 23 20 22 20 19 20 20 22 24 25 24 24 25 23 22 22 21 20 19 19 18 18 19 19
17 18 18 19 19 19 19 18 20 19 17 20 22 22 25 25 23 23 24 22 22 20 21 21 19 21 23 23 23 23 23 23 24 25 24 22 22 23 21 21 21 20 19 20 19
17 18 19 19 20 20 21 20 20 20 18 21 22 23 24 24 23 23 23 22 22 21 21 19 22 25 24 24 24 23 23 24 24 26 24 23 21 21 23 22 22 21 21 20 20
16 17 18 20 20 20 20 20 20 20 16 21 22 23 23 23 22 24 24 23 23 21 21 21 24 25 24 24 24 23 25 25 24 23 20 22 22 22 24 23 22 21 20 20 20
16 17 18 19 19 19 20 20 20 19 20 23 22 24 23 22 23 23 24 23 21 23 23 22 24 23 23 24 24 23 25 25 24 23 22 22 19 20 22 23 23 22 21 20 20
16 16 17 18 18 19 20 20 20 18 20 23 21 22 21 22 23 22 22 22 22 22 22 21 24 23 24 24 25 22 23 23 21 19 18 20 20 25 22 25 24 23 21 20 20
16 17 17 17 19 20 20 19 17 17 24 24 22 22 21 21 22 21 20 19 19 19 19 22 22 24 25 23 23 23 20 18 18 17 18 21 20 24 23 24 25 25 21 20 20
17 18 19 19 19 19 20 17 19 21 23 23 23 23 21 23 22 21 21 19 18 20 19 19 20 22 22 23 21 19 20 17 18 17 21 21 19 23 24 27 24 23 22 18 18
17 17 18 20 20 19 15 16 18 22 23 21 22 22 22 23 22 22 20 20 20 20 19 20 21 23 23 23 23 19 20 22 20 20 19 20 21 23 25 24 22 21 19 18 18
15 15 18 19 20 19 14 16 19 22 22 22 20 21 20 21 20 21 22 23 22 22 22 21 21 24 23 23 22 20 20 19 18 19 18 19 20 21 24 26 21 20 19 18 17
15 13 18 19 19 13 14 16 20 21 21 21 21 20 20 19 20 20 21 23 23 23 22 22 20 23 22 20 21 20 21 20 19 16 17 19 19 20 24 23 20 21 18 18 17
11 14 18 19 14 13 14 18 18 19 19 19 20 20 19 19 20 20 20 21 20 19 20 22 21 21 22 20 21 22 22 22 20 18 19 22 23 25 23 22 21 19 19 17 17
8 11 18 18 13 13 15 17 18 18 18 18 18 18 18 17 16 18 18 17 14 16 17 16 19 20 22 20 20 19 21 21 22 18 21 21 23 24 26 24 20 20 19 18 17
8 11 11 12 12 14 13 15 15 16 17 18 17 17 17 17 17 16 15 16 15 15 16 16 18 19 19 22 20 18 19 21 20 20 21 21 23 23 23 22 21 19 19 18 18
8 10 10 9 10 10 11 13 13 14 16 16 15 15 14 14 15 14 15 15 15 16 12 12 13 14 13 14 16 19 22 21 20 21 21 22 22 23 23 21 20 19 19 17 17
8 8 7 7 8 9 10 11 13 14 13 13 12 13 13 12 13 12 13 12 12 13 13 12 10 10 11 12 12 13 15 17 21 22 22 22 23 22 22 20 20 19 20 18 19
9 10 10 10 8 8 9 11 12 12 13 13 13 12 12 13 13 12 11 12 12 11 11 11 11 11 11 13 12 11 15 18 20 23 22 21 23 22 23 23 24 21 18 19 19
Height
811 811 811 811 810 809 808 808 807 807 807 807 808 808 807 806 806 805 805 805 804 803 802 801 800 800 801 801 800 801 833 838 822 825 819 808 813 806 808 816 820 821 823 824 830
812 811 811 810 810 809 809 808 807 807 807 807 807 808 807 806 806 805 804 803 803 803 802 801 800 800 805 802 804 816 837 822 809 809 813 809 810 811 817 821 828 827 825 826 828
812 811 811 810 810 809 809 808 808 808 808 808 808 807 807 806 807 802 802 802 802 802 801 800 799 800 806 801 804 808 826 807 809 804 802 807 811 806 820 827 821 826 825 824 826
813 812 812 811 810 810 809 809 808 808 808 808 807 807 806 806 814 800 800 801 801 801 801 800 800 806 807 812 802 813 803 803 804 803 804 808 805 810 812 813 808 814 818 821 823
814 814 813 812 811 811 810 810 809 808 808 808 807 806 805 807 803 799 799 800 801 801 800 800 803 804 810 806 801 807 805 801 804 803 804 801 808 809 812 809 806 812 815 818 821
815 814 814 813 812 811 810 810 809 809 808 808 807 806 806 811 798 799 799 799 800 800 799 798 799 798 800 801 806 800 803 804 804 804 803 806 808 807 810 809 811 813 815 815 817
816 816 814 813 813 811 811 810 809 808 808 808 807 806 805 803 798 798 799 798 799 799 798 797 797 799 796 801 794 798 810 806 806 805 806 802 815 811 803 807 812 813 814 814 814
817 816 815 814 813 812 811 809 808 808 807 807 806 806 807 796 796 797 797 798 798 798 798 797 797 798 798 794 798 808 812 829 804 805 802 808 828 803 800 806 810 811 813 811 810
817 817 816 815 814 812 811 809 808 807 806 806 806 805 804 795 794 794 795 796 797 797 798 797 798 800 798 815 825 817 836 826 809 799 802 809 815 793 792 798 804 808 808 807 808
817 817 816 815 814 812 809 807 806 805 805 804 805 810 797 794 791 793 794 795 795 795 798 799 804 813 815 827 846 829 827 813 815 801 801 809 805 794 794 794 796 799 800 801 800
818 817 816 815 814 811 808 806 808 808 805 800 795 794 788 789 790 792 793 794 794 796 812 803 818 825 815 810 805 803 805 809 798 783 798 803 796 794 791 793 793 793 792 790 789
818 816 814 813 812 811 810 811 811 813 812 791 789 789 787 787 791 789 791 798 800 812 805 811 820 801 796 799 802 803 810 807 794 783 792 797 793 783 784 781 775 775 779 779 783
818 816 814 812 811 810 809 810 810 809 813 790 781 783 785 787 790 787 786 790 797 805 804 814 796 781 791 795 798 800 804 802 804 788 788 793 799 787 769 765 762 763 761 765 768
818 815 813 811 812 809 810 810 809 808 826 798 788 783 783 785 791 777 778 785 790 798 797 798 780 783 788 793 789 804 784 789 795 804 825 795 805 785 766 761 757 752 756 755 758
818 816 813 811 812 811 812 809 808 807 840 791 789 782 783 790 784 781 778 781 793 788 787 791 779 784 788 783 779 792 779 786 789 799 805 801 820 784 767 764 749 741 740 745 747
817 815 813 811 811 811 810 809 810 830 833 794 788 791 795 791 787 783 784 782 782 789 783 786 769 773 774 771 772 779 785 790 797 812 830 805 811 753 771 748 735 727 730 734 739
816 814 812 812 811 809 808 809 835 844 787 794 792 788 792 793 790 791 795 799 804 810 805 780 775 766 763 780 778 779 801 829 830 837 818 786 799 751 743 733 726 719 724 726 731
814 811 810 809 809 810 808 823 840 812 799 787 790 786 797 785 785 783 790 801 795 795 800 804 797 770 760 763 779 785 787 819 829 827 793 777 789 752 724 709 713 712 712 722 728
810 809 808 807 808 810 817 839 827 804 793 799 792 795 792 782 785 781 788 785 780 783 801 791 779 748 745 747 754 780 784 763 788 784 800 776 755 733 719 719 721 716 717 721 724
811 809 809 806 808 810 827 828 811 794 793 793 807 796 802 792 795 790 782 764 769 763 761 769 776 750 745 745 747 759 759 789 792 802 809 770 761 748 723 711 718 722 718 718 719
813 814 810 809 809 818 833 824 805 795 795 798 799 800 798 799 792 791 780 765 758 757 759 755 768 751 751 756 752 763 761 764 766 780 788 773 760 718 705 704 712 707 711 713 715
820 823 812 811 823 823 826 812 807 805 798 795 789 791 793 791 786 783 778 774 764 768 766 751 754 749 743 738 733 733 734 739 758 769 759 741 720 693 695 695 698 703 704 707 708
832 827 815 814 833 831 820 814 810 805 803 801 799 794 791 793 797 779 778 773 780 779 782 775 759 754 736 739 736 740 736 736 731 747 739 739 712 692 688 689 696 695 697 699 703
837 839 825 820 822 826 829 823 818 810 805 801 801 797 794 794 789 784 785 776 776 777 780 775 762 756 750 730 729 739 732 727 735 742 718 717 702 700 698 696 690 691 690 694 696
839 844 845 848 838 842 836 829 825 820 809 805 802 804 811 802 793 794 783 778 777 776 787 787 776 768 764 762 751 732 709 712 718 707 717 695 700 686 689 693 690 684 686 692 694
850 854 852 852 847 844 836 830 824 819 823 816 816 811 811 811 807 800 796 795 789 781 781 783 787 788 771 765 759 756 736 727 696 691 688 687 677 679 676 679 681 683 679 682 684
852 852 850 845 848 847 838 828 827 824 817 817 815 811 810 802 797 793 791 785 782 783 781 782 777 778 768 756 760 755 735 712 698 681 679 688 659 676 668 668 663 669 675 673 673
Wind_Speed
3 2 0 1 1 1 1 1 2 3 3 4 3 2 3 5 6 5 2 2 2 4 3 6 3 4 5 2 1 3 4 2 4 7 6 6 5 2 1 6 4 2 5 13 22
7 5 3 2 1 2 1 2 2 3 4 3 2 2 5 7 9 7 6 2 2 2 3 5 4 4 2 1 1 4 3 3 2 4 6 7 7 7 5 4 3 5 7 18 20
7 6 5 4 3 3 2 2 3 4 3 2 2 4 6 7 3 5 4 2 2 2 3 8 8 2 2 2 3 3 4 2 2 3 1 9 7 6 9 4 8 10 9 12 14
8 8 6 6 5 5 4 3 3 2 1 2 4 6 7 2 1 4 2 2 2 1 5 4 3 2 2 4 5 1 3 3 2 3 2 7 8 7 7 5 9 14 13 8 9
8 7 6 6 6 5 4 2 2 1 2 4 6 8 3 1 4 1 4 2 1 3 9 4 4 4 3 5 4 4 4 3 5 1 5 5 6 7 6 3 11 14 12 10 10
6 5 5 5 5 4 3 3 3 3 4 5 7 9 1 2 3 3 2 2 2 4 7 5 3 4 4 2 5 1 6 6 5 5 4 4 4 8 7 9 9 10 10 10 11
5 4 3 4 4 4 4 4 4 5 5 6 7 8 3 8 5 5 2 2 4 5 4 5 4 3 4 0 2 3 3 2 6 6 5 3 5 10 6 10 11 10 9 9 12
6 6 6 7 7 7 6 6 5 6 6 6 8 5 5 5 6 6 7 7 3 5 5 6 4 3 1 1 1 3 3 2 5 10 5 8 9 10 10 12 12 12 10 9 10
7 8 9 9 10 10 10 10 9 8 9 8 6 2 7 2 4 8 7 5 9 4 4 5 3 4 2 4 2 2 4 7 4 11 5 6 8 7 13 17 14 11 12 12 10
7 8 8 10 11 13 14 11 7 9 7 8 8 4 4 3 7 6 7 5 4 4 1 1 1 1 1 3 6 7 5 5 6 9 8 8 14 3 9 14 16 14 15 13 16
10 9 10 10 10 12 14 4 4 2 4 8 5 4 5 6 7 6 10 4 2 3 5 5 3 8 11 9 7 3 4 6 6 6 9 14 15 14 12 10 13 14 15 19 19
15 10 8 9 10 11 11 3 2 2 7 14 17 8 3 5 3 6 14 6 5 6 4 2 8 11 10 10 12 12 9 7 7 3 9 8 18 15 11 17 21 22 18 19 14
16 12 10 10 11 7 3 4 5 7 3 7 6 6 4 5 4 7 12 6 5 6 8 8 8 9 11 9 8 12 8 4 6 2 4 5 8 9 13 14 16 20 19 20 21
18 15 10 8 4 8 2 5 4 4 3 4 2 4 4 3 5 7 18 7 5 10 8 9 15 13 6 7 7 8 4 5 7 2 5 5 11 6 10 12 11 19 18 19 18
18 16 10 6 5 4 5 8 6 1 4 3 3 0 4 6 1 2 4 2 6 5 4 9 5 7 8 10 7 7 4 3 3 3 2 3 3 5 7 8 13 16 20 19 19
18 18 12 2 3 3 8 7 3 5 5 3 3 3 4 4 3 2 2 3 3 5 11 8 4 5 8 2 3 7 4 3 4 3 5 7 7 20 8 15 8 5 13 19 18
19 16 15 7 2 5 5 3 4 3 3 2 4 5 6 5 5 5 4 4 6 2 6 4 11 4 5 4 2 3 7 2 3 1 10 11 9 23 7 9 9 8 10 15 17
18 14 11 8 1 5 2 5 1 5 5 6 10 4 6 5 8 10 5 5 8 4 3 5 7 14 9 16 10 11 11 7 8 6 10 6 8 9 15 21 8 10 9 10 14
17 5 4 4 3 3 4 3 7 4 2 8 8 5 4 5 5 7 10 8 8 17 9 5 8 6 8 8 17 7 11 12 3 3 2 6 8 9 4 4 7 9 9 12 13
16 6 4 2 4 3 4 5 4 4 7 6 5 6 6 8 5 6 4 5 10 15 20 7 16 12 7 2 5 8 7 3 3 6 7 8 7 8 11 19 11 8 11 11 10
7 3 3 4 5 4 3 6 5 8 9 5 5 10 6 5 9 8 7 8 4 8 9 16 7 15 2 6 16 5 9 5 5 6 7 9 7 10 17 11 14 17 11 12 13
9 3 4 2 3 2 3 3 9 11 9 9 11 12 13 12 19 18 21 9 14 6 12 8 11 19 28 9 11 16 12 23 8 5 7 15 17 4 9 10 11 13 14 11 12
4 3 2 3 0 3 7 9 13 7 8 7 5 7 9 8 10 6 10 13 16 16 15 8 6 11 14 3 2 7 13 7 19 1 17 17 17 11 16 14 10 12 12 12 13
3 4 4 4 1 4 6 7 5 12 9 12 11 10 10 13 13 10 14 7 16 14 17 10 6 15 17 17 6 7 12 19 15 12 25 22 28 10 6 7 7 9 11 13 15
3 2 2 4 5 8 4 5 11 9 5 8 7 12 14 9 15 13 16 19 10 14 5 5 7 11 21 23 19 21 20 26 26 30 21 29 26 25 18 13 12 9 10 9 11
3 3 4 4 5 6 6 4 12 8 11 6 14 17 14 11 13 15 12 9 8 3 6 2 6 16 24 23 25 26 28 25 27 30 31 32 32 7 12 9 8 12 13 14 15
9 7 3 3 3 5 4 4 15 17 4 15 13 15 14 16 9 8 8 11 13 13 15 6 4 4 11 20 18 20 18 25 25 23 22 23 34 12 20 18 19 11 12 15 14
Wind_Direction
68 67 179 238 220 189 141 126 115 103 99 97 78 35 4 335 309 304 288 205 295 325 307 317 304 289 269 239 249 83 58 290 314 162 168 166 128 79 41 94 52 66 131 152 157
63 67 75 88 102 105 111 116 111 109 114 106 80 13 348 332 318 268 239 257 290 270 353 332 346 209 328 203 259 101 113 242 347 315 155 151 136 141 111 117 75 76 95 142 161
54 57 65 74 81 82 71 81 104 108 98 74 9 345 339 343 327 208 201 215 228 184 299 308 313 11 217 155 231 200 177 252 17 6 123 156 155 156 132 209 185 169 175 169 180
47 52 58 62 69 68 65 75 100 97 51 0 337 330 323 308 188 190 180 189 171 183 281 252 253 279 198 196 237 151 187 110 156 334 92 170 147 165 158 220 193 160 166 159 158
49 50 50 49 51 52 49 38 18 355 335 335 336 336 334 219 249 173 154 121 191 267 259 262 226 196 241 208 171 198 209 145 116 296 294 154 163 181 150 113 112 145 155 162 172
47 44 42 41 32 32 21 358 330 311 312 324 335 337 285 274 155 165 175 180 276 253 285 251 259 242 245 247 153 296 160 157 156 208 264 194 217 145 197 146 136 151 173 176 173
6 3 10 19 14 8 350 325 308 297 296 312 328 344 303 241 164 187 199 239 243 273 310 264 337 350 327 342 207 145 142 195 200 197 224 94 270 226 175 165 168 182 196 196 187
334 334 337 339 335 329 314 296 283 275 274 288 305 316 247 221 198 223 197 234 229 251 273 303 287 283 228 212 35 167 127 203 246 172 228 124 258 243 183 169 192 194 203 207 203
324 325 326 327 326 324 315 303 282 272 270 282 305 198 273 205 195 211 218 238 204 221 246 263 285 221 17 111 26 267 225 219 307 188 146 162 256 253 187 182 198 200 205 208 206
319 313 315 321 326 325 325 303 270 274 272 272 274 357 244 240 158 172 196 242 205 201 220 255 203 144 45 112 208 206 225 235 207 217 178 201 247 226 181 183 202 205 209 207 206
4 333 324 322 324 331 341 339 7 332 252 205 194 228 153 129 147 201 181 191 261 169 192 215 147 211 210 209 222 225 211 235 264 237 167 217 227 227 209 204 215 215 210 213 211
15 2 341 328 327 328 330 0 84 242 300 246 245 256 235 184 181 240 186 160 180 210 233 298 232 229 221 223 227 246 257 266 296 198 178 236 241 242 204 216 215 213 214 215 208
17 3 348 335 329 332 324 345 338 353 273 288 211 206 172 160 243 228 148 180 208 214 217 191 230 228 218 252 205 233 219 237 236 317 262 277 281 241 250 232 226 224 218 211 204
9 5 352 339 355 343 75 336 354 2 3 263 231 259 119 137 259 193 181 175 229 210 223 234 234 235 200 230 204 236 193 237 244 136 240 155 283 275 284 269 221 225 209 211 203
359 1 351 354 320 30 331 325 327 60 353 158 129 250 159 173 235 279 155 91 227 242 160 236 168 179 198 213 193 235 155 164 206 209 332 207 304 254 252 274 266 224 213 207 200
343 347 348 19 346 327 318 319 339 37 262 190 126 186 115 275 294 24 16 30 254 248 264 232 278 185 198 129 194 154 101 46 33 84 273 173 187 274 222 238 254 239 196 201 195
330 330 319 277 180 313 338 29 31 144 294 208 233 176 196 210 226 193 183 199 207 178 245 262 240 217 165 140 23 160 102 288 285 181 239 183 206 249 263 248 217 197 208 193 189
331 327 309 262 195 311 25 57 89 267 303 46 346 204 190 211 240 197 195 237 239 286 322 204 285 176 196 201 186 198 166 172 204 210 259 196 230 248 222 246 221 204 185 161 173
341 347 297 297 233 246 66 117 208 221 50 350 341 279 249 264 244 222 216 211 199 195 200 241 254 214 200 180 175 194 212 209 286 168 292 227 265 299 277 233 216 180 160 174 178
339 348 3 359 165 104 71 242 254 332 318 332 241 239 280 298 341 334 260 234 232 207 205 233 275 254 244 176 239 160 167 100 195 215 227 246 233 228 225 235 216 209 196 187 180
342 26 345 111 140 60 183 233 288 288 286 289 300 281 271 295 295 290 246 303 289 322 243 236 213 256 136 226 190 191 220 219 179 169 195 256 249 207 221 219 201 204 199 188 189
348 44 23 91 47 232 207 255 348 338 336 317 294 276 269 270 274 272 277 260 356 353 314 277 236 246 238 215 204 230 225 207 204 251 245 249 254 254 195 188 180 199 201 200 190
346 282 322 357 79 310 310 315 311 308 358 343 301 349 334 323 313 308 321 355 35 21 1 339 309 275 255 305 309 221 231 225 236 92 234 239 254 217 254 268 221 196 198 193 188
360 6 334 21 334 358 346 285 325 332 324 326 306 310 327 310 298 289 305 313 328 327 351 328 256 270 279 262 201 197 218 222 215 234 246 243 258 248 260 244 205 208 191 188 194
25 19 317 332 341 330 308 298 310 317 298 325 324 355 357 326 308 291 309 306 307 309 14 32 292 315 317 318 321 309 235 219 216 227 232 251 244 245 238 236 231 212 195 190 188
60 19 356 292 302 330 324 311 302 344 353 326 331 324 330 313 314 327 345 332 292 278 309 227 274 299 289 298 317 315 303 294 230 233 239 245 257 181 231 230 230 225 213 196 198
14 357 308 231 295 320 243 329 323 327 308 319 313 316 312 307 302 290 281 266 245 267 281 268 244 261 269 274 281 294 297 285 292 255 241 238 247 186 236 241 245 239 207 206 198